Regional Weather Roundup
Issued by NWS

Home | Current Version | Previous Version | Text Only | Print | Product List | Glossary On
Versions: 1 2 3 4 5 6 7 8 9 10 11 12 13 14 15 16 17 18 19 20 21 22 23 24 25 26 27
000
ASUS46 KSEW 180910
RWRWA

WASHINGTON REGIONAL WEATHER ROUNDUP
NATIONAL WEATHER SERVICE SEATTLE WA
200 AM PDT WED OCT 18 2017

NOTE:"FAIR" INDICATES FEW OR NO CLOUDS BELOW 12,000 FEET WITH NO
SIGNIFICANT WEATHER AND/OR OBSTRUCTIONS TO VISIBILITY.

WAZ507-509-555>559-181000-
SEATTLE, TACOMA, EVERETT, AND VICINITY

CITY           SKY/WX    TMP DP  RH WIND       PRES   REMARKS
EVERETT        CLOUDY    46  43  89 E7        30.05F
BOEING FIELD   CLOUDY    48  43  82 SE9       30.06F
RENTON         CLOUDY    48  44  86 SE3       30.06F
SEATAC AIRPORT CLOUDY    49  42  77 SE6       30.06F
JBLM-MCCHORD   MOCLDY    44  44  99 CALM      30.06F
PUYALLUP       FAIR      45  43  93 CALM      30.05F
BREMERTON      CLOUDY    41  40  96 CALM      30.06F
JBLM-FT LEWIS  CLOUDY    45  45  99 CALM      30.05F
TACOMA NARROWS CLOUDY    48  43  82 CALM      30.06F
$$

WAZ001-503-506-510-514-515-181000-
NORTH INTERIOR

CITY           SKY/WX    TMP DP  RH WIND       PRES   REMARKS
BELLINGHAM     CLOUDY    45  40  82 CALM      30.04F
FRIDAY HARBOR  CLOUDY    45  43  93 CALM      30.04F
EASTSOUND      CLOUDY    50  43  76 CALM      30.04F
PORT ANGELES   MOCLDY    42  40  92 SW6       30.02F
EDIZ HOOK      FAIR      46  41  83 SW3       30.02F
PORT TOWNSEND  FAIR      45  43  93 SE5       30.04F
NAS WHIDBEY    CLOUDY    47  37  68 E6        30.07F
ARLINGTON      CLOUDY    43  40  89 CALM      30.06F
BURLINGTON     CLOUDY    46  39  76 NE7       30.05F
$$

WAZ020-022-039-040-504-511-512-181000-
SOUTHWEST INTERIOR

CITY           SKY/WX    TMP DP  RH WIND       PRES   REMARKS
SHELTON        MOCLDY    45  42  89 CALM      30.03F
OLYMPIA        CLOUDY    44  43  96 CALM      30.05F
CHEHALIS       MOCLDY    45  45 100 CALM      30.05F
KELSO          MOCLDY    48  46  93 S3        30.06F
VANCOUVER      CLOUDY    50  50 100 CALM      30.06F
SCAPPOOSE, OR  CLOUDY    48  48 100 CALM      30.06F
PORTLAND, OR   MOCLDY    49  49 100 CALM      30.07F
$$

WAZ021-516-517-181000-
WASHINGTON COAST

CITY           SKY/WX    TMP DP  RH WIND       PRES   REMARKS
FORKS          CLOUDY    45  43  93 E5        29.99F
HOQUIAM        CLOUDY    48  45  89 NE5       30.03F
ASTORIA, OR    CLOUDY    46  43  89 CALM      30.03F
$$

WAZ019-023-024-040-567>569-181000-
CASCADE MOUNTAINS AND COLUMBIA GORGE

CITY           SKY/WX    TMP DP  RH WIND       PRES   REMARKS
STAMPEDE PASS  CLOUDY    35  34  96 CALM      30.03F FOG
TROUTDALE, OR  CLOUDY    51  48  89 NE5       30.07F
HOOD RIVER, OR MOSUNNY   41  39  93 CALM      30.10S
THE DALLES, OR MOCLDY    47  45  93 NW3       30.09S
$$

WAZ026-027-041>044-520-521-181000-
EAST SLOPES

CITY           SKY/WX    TMP DP  RH WIND       PRES   REMARKS
OMAK           CLOUDY    44  22  41 CALM      30.04F
WENATCHEE      CLOUDY    47  32  56 NW8       30.05F
ELLENSBURG     CLOUDY    41  34  76 CALM      30.06F
YAKIMA         CLOUDY    44  27  51 W6        30.07F
SUNNYSIDE ARPT CLOUDY    39  35  83 CALM      30.07S
YAKIMA TC      FAIR      40  27  59 CALM      30.04F
$$

WAZ028-034-035-181000-
COLUMBIA BASIN

CITY           SKY/WX    TMP DP  RH WIND       PRES   REMARKS
EPHRATA        CLOUDY    44  27  51 CALM      30.04F
MOSES LAKE     CLOUDY    46  35  65 S6        30.06S
PASCO          CLOUDY    47  41  80 CALM      30.07F
RICHLAND ARPT  CLOUDY    47  38  72 CALM      30.06F
HERMISTON, OR  CLOUDY    50  44  80 CALM      30.05F
$$

WAZ036>038-181000-
NORTHEAST WASHINGTON

CITY           SKY/WX    TMP DP  RH WIND       PRES   REMARKS
SPOKANE GEIGER CLOUDY    43  26  51 SW7       30.06S
SPOKANE FELTS  CLOUDY    48  26  42 CALM      30.06F
FAIRCHILD AFB  CLEAR     43  24  48 S9        30.05S
COEURDALENE,ID PTCLDY    43  24  47 SE3       30.07R
DEER PARK      CLOUDY    38  23  55 CALM      30.06R
$$

WAZ029>033-181000-
SOUTHEAST WASHINGTON

CITY           SKY/WX    TMP DP  RH WIND       PRES   REMARKS
PULLMAN        CLOUDY    47  40  76 CALM      30.09S
LEWISTON, ID   CLOUDY    54  42  64 CALM      30.07R
WALLA WALLA    CLOUDY    53  43  68 CALM      30.07F
PENDLETON, OR  CLOUDY    51  43  74 NW3       30.05F
$$




USA.gov is the U.S. government's official web portal to all federal, state and local government web resources and services.